Location: Newark
(45.0500°N, 41.9667°E)
Time: 21:11:13
(UTC+00:00)

Starlink (trailer) - Pass Details

Date: 26 July 2019
Orbit: 549 x 550 km, 53.0° (Epoch: 19 August)

Event Time Altitude Azimuth Distance (km) Brightness Sun altitude
Rises 00:17:37 0° 296° (WNW) 2,722 7.0 -13.7°
Reaches altitude 10° 00:20:04 10° 308° (NW) 1,827 6.2 -13.4°
Maximum altitude 00:23:44 29° 10° (N) 1,023 5.6 -12.9°
Drops below altitude 10° 00:27:23 10° 72° (ENE) 1,826 7.3 -12.5°
Sets 00:29:51 0° 83° (E) 2,719 8.1 -12.2°
